Location: Newark
(47.5833°N, 8.1500°E)
Time: 16:58:38
(UTC+00:00)

deb Explorer IX - All Passes

Search period start: 21 October 2020 00:00
Search period end: 31 October 2020 00:00
Orbit: 537 x 1106 km, 38.8° (Epoch: 19 October)

Date Brightness Start Highest point End Pass type
(mag) Time Alt. Az. Time Alt. Az. Time Alt. Az.
21 Oct - 06:14:28 10° S 06:17:54 14° SE 06:21:25 10° ESE daylight
21 Oct - 07:57:47 10° SW 08:03:56 32° SSE 08:10:14 10° ESE daylight
21 Oct - 09:43:47 10° WSW 09:50:34 42° S 09:57:14 10° ESE daylight
21 Oct - 11:30:48 10° WSW 11:37:13 34° SSW 11:43:16 10° SE daylight
21 Oct - 13:19:18 10° WSW 13:23:16 16° SW 13:27:02 10° S daylight
22 Oct - 05:51:17 10° S 05:54:35 14° SE 05:58:00 10° ESE daylight
22 Oct - 07:34:31 10° SW 07:40:36 32° SSE 07:46:54 10° ESE daylight
22 Oct - 09:20:28 10° WSW 09:27:13 42° S 09:33:57 10° ESE daylight
22 Oct - 11:07:27 10° WSW 11:13:53 34° SSW 11:20:02 10° SE daylight
22 Oct - 12:55:52 10° WSW 12:59:58 16° SW 13:03:53 10° S daylight
23 Oct - 05:28:07 10° S 05:31:17 14° SE 05:34:34 10° ESE visible
23 Oct - 07:11:16 10° SW 07:17:16 31° SSE 07:23:32 10° ESE daylight
23 Oct - 08:57:10 10° WSW 09:03:52 42° S 09:10:39 10° ESE daylight
23 Oct - 10:44:05 10° WSW 10:50:32 34° SSW 10:56:47 10° SE daylight
23 Oct - 12:32:28 10° WSW 12:36:39 16° SW 12:40:42 10° S daylight
24 Oct - 05:05:00 10° S 05:08:00 13° SE 05:11:06 10° ESE visible
24 Oct - 06:48:03 10° SW 06:53:55 31° SSE 07:00:10 10° ESE daylight
24 Oct - 08:33:54 10° WSW 08:40:31 42° S 08:47:19 10° ESE daylight
24 Oct - 10:20:46 10° WSW 10:27:11 34° SSW 10:33:30 10° SE daylight
24 Oct - 12:09:04 10° WSW 12:13:21 17° SW 12:17:28 10° S daylight
25 Oct - 04:41:55 10° SSE 04:44:42 13° SE 04:47:37 10° ESE visible
25 Oct - 06:24:51 10° SW 06:30:36 31° SSE 06:36:46 10° ESE daylight
25 Oct - 08:10:38 10° WSW 08:17:10 42° S 08:23:58 10° ESE daylight
25 Oct - 09:57:27 10° WSW 10:03:50 34° SSW 10:10:12 10° SE daylight
25 Oct - 11:45:43 10° WSW 11:50:01 17° SW 11:54:13 10° S daylight
26 Oct - 04:18:52 10° SSE 04:21:26 13° SE 04:24:06 10° ESE visible
26 Oct - 06:01:41 10° SW 06:07:17 30° SSE 06:13:23 10° ESE daylight
26 Oct - 07:47:24 10° WSW 07:53:49 42° S 08:00:36 10° ESE daylight
26 Oct - 09:34:09 10° WSW 09:40:29 34° SSW 09:46:53 10° SE daylight
26 Oct - 11:22:22 10° WSW 11:26:41 17° SW 11:30:56 10° S daylight
27 Oct - 03:55:51 10° SSE 03:58:09 12° SE 04:00:33 10° ESE visible
27 Oct - 05:38:31 10° SW 05:43:58 30° SSE 05:49:58 10° ESE daylight
27 Oct - 07:24:11 10° WSW 07:30:28 41° S 07:37:13 10° ESE daylight
27 Oct - 09:10:53 10° WSW 09:17:07 34° SSW 09:23:32 10° SE daylight
27 Oct - 10:59:02 10° WSW 11:03:20 17° SW 11:07:38 10° S daylight
28 Oct - 03:32:55 10° SSE 03:34:54 12° SE 03:36:58 10° ESE visible
28 Oct - 05:15:23 10° SW 05:20:39 29° SSE 05:26:31 10° ESE visible
28 Oct - 07:01:00 10° WSW 07:07:08 41° S 07:13:49 10° ESE daylight
28 Oct - 08:47:38 10° WSW 08:53:46 33° SSW 09:00:10 10° SE daylight
28 Oct - 10:35:44 10° WSW 10:40:00 17° SSW 10:44:17 10° S daylight
29 Oct - 03:10:02 10° SSE 03:11:39 11° SE 03:13:19 10° SE visible
29 Oct - 04:52:15 10° SW 04:57:23 29° SSE 05:03:06 10° ESE visible
29 Oct - 06:37:50 10° WSW 06:43:48 40° S 06:50:25 10° ESE daylight
29 Oct - 08:24:24 10° WSW 08:30:25 33° SSW 08:36:47 10° SE daylight
29 Oct - 10:12:28 10° WSW 10:16:40 16° SSW 10:20:55 10° S daylight
30 Oct - 02:47:17 10° SSE 02:48:25 11° SE 02:49:34 10° SE visible
30 Oct - 04:29:10 10° SW 04:34:06 28° SSE 04:39:39 10° ESE visible
30 Oct - 06:14:40 10° WSW 06:20:29 40° S 06:26:59 10° ESE daylight
30 Oct - 08:01:12 10° WSW 08:07:06 32° SSW 08:13:23 10° SE daylight
30 Oct - 09:49:14 10° WSW 09:53:20 16° SSW 09:57:31 10° S daylight
